Hourly Weather Lucknow

Today, 14 July, Tuesday

Time Temperature Precipitation Wind Pressure Humidity
00:00 +35°C° 0 mm 4 mps 737 mmHg 63%
01:00 +35°C° 0 mm 3 mps 737 mmHg 65%
02:00 +34°C° 0 mm 3 mps 736 mmHg 66%
03:00 +34°C° 0 mm 3 mps 737 mmHg 68%
04:00 +34°C° 0 mm 2 mps 737 mmHg 71%
05:00 +33°C° 0 mm 1 mps 737 mmHg 64%
06:00 +34°C° 0 mm 1 mps 737 mmHg 61%
07:00 +36°C° 0 mm 2 mps 737 mmHg 58%
08:00 +37°C° 0 mm 2 mps 737 mmHg 55%
09:00 +38°C° 0 mm 2 mps 737 mmHg 50%
10:00 +39°C° 0 mm 2 mps 738 mmHg 45%
11:00 +41°C° 0 mm 2 mps 738 mmHg 39%
12:00 +41°C° 0 mm 2 mps 737 mmHg 37%
13:00 +42°C° 0 mm 2 mps 736 mmHg 35%
14:00 +42°C° 0 mm 2 mps 735 mmHg 33%
15:00 +42°C° 0 mm 2 mps 735 mmHg 33%
16:00 +43°C° 0 mm 3 mps 735 mmHg 34%
17:00 +42°C° 0 mm 3 mps 735 mmHg 35%
18:00 +41°C° 0 mm 4 mps 735 mmHg 40%
19:00 +40°C° 0 mm 5 mps 736 mmHg 46%
20:00 +37°C° 0 mm 5 mps 736 mmHg 52%
21:00 +38°C° 0 mm 6 mps 736 mmHg 56%
22:00 +36°C° 0 mm 6 mps 736 mmHg 59%
23:00 +36°C° 0 mm 6 mps 737 mmHg 62%

Tomorrow, 15 July, Wednesday

Time Temperature Precipitation Wind Pressure Humidity
00:00 +35°C° 0 mm 5 mps 737 mmHg 64%
01:00 +35°C° 0 mm 5 mps 736 mmHg 65%
02:00 +34°C° 0 mm 5 mps 736 mmHg 66%
03:00 +34°C° 0 mm 5 mps 736 mmHg 67%
04:00 +33°C° 0 mm 4 mps 737 mmHg 69%
05:00 +33°C° 0 mm 4 mps 737 mmHg 70%
06:00 +34°C° 0 mm 4 mps 737 mmHg 67%
07:00 +35°C° 0 mm 4 mps 738 mmHg 63%
08:00 +36°C° 0 mm 5 mps 738 mmHg 60%
09:00 +37°C° 0 mm 5 mps 738 mmHg 55%
10:00 +40°C° 0 mm 5 mps 738 mmHg 50%
11:00 +41°C° 0 mm 5 mps 738 mmHg 45%
12:00 +41°C° 0 mm 4 mps 737 mmHg 43%
13:00 +42°C° 0 mm 4 mps 736 mmHg 40%
14:00 +43°C° 0 mm 3 mps 736 mmHg 37%
15:00 +42°C° 0 mm 4 mps 735 mmHg 39%
16:00 +41°C° 0 mm 4 mps 735 mmHg 41%
17:00 +41°C° 0 mm 5 mps 734 mmHg 43%
18:00 +40°C° 0 mm 5 mps 735 mmHg 46%
19:00 +38°C° 0 mm 4 mps 735 mmHg 49%
20:00 +37°C° 0 mm 4 mps 735 mmHg 52%
21:00 +37°C° 0.1 mm 4 mps 736 mmHg 56%
22:00 +36°C° 0.1 mm 4 mps 736 mmHg 59%
23:00 +35°C° 0.1 mm 5 mps 736 mmHg 62%

Day after tomorrow, 16 July, Thursday

Time Temperature Precipitation Wind Pressure Humidity
00:00 +35°C° 0.1 mm 4 mps 736 mmHg 64%
01:00 +34°C° 0.1 mm 4 mps 736 mmHg 66%
02:00 +34°C° 0.1 mm 3 mps 736 mmHg 67%
03:00 +34°C° 0.4 mm 4 mps 736 mmHg 69%
04:00 +33°C° 0.4 mm 4 mps 736 mmHg 71%
05:00 +33°C° 0.4 mm 5 mps 736 mmHg 72%
06:00 +33°C° 0.1 mm 5 mps 736 mmHg 70%
07:00 +34°C° 0.1 mm 5 mps 737 mmHg 67%
08:00 +34°C° 0.1 mm 5 mps 737 mmHg 65%
09:00 +36°C° 0.4 mm 5 mps 737 mmHg 60%
10:00 +37°C° 0.4 mm 5 mps 737 mmHg 56%
11:00 +38°C° 0.4 mm 4 mps 737 mmHg 51%
12:00 +40°C° 0 mm 4 mps 736 mmHg 49%
13:00 +41°C° 0 mm 4 mps 735 mmHg 46%
14:00 +41°C° 0 mm 4 mps 735 mmHg 44%
15:00 +41°C° 0 mm 4 mps 734 mmHg 45%
16:00 +41°C° 0 mm 4 mps 734 mmHg 45%
17:00 +40°C° 0 mm 3 mps 734 mmHg 46%
18:00 +40°C° 0 mm 4 mps 734 mmHg 50%
19:00 +38°C° 0 mm 4 mps 734 mmHg 53%
20:00 +37°C° 0 mm 4 mps 735 mmHg 56%
21:00 +37°C° 0.2 mm 4 mps 735 mmHg 58%
22:00 +36°C° 0.2 mm 4 mps 735 mmHg 60%
23:00 +36°C° 0.2 mm 4 mps 736 mmHg 62%

17 July, Friday

Time Temperature Precipitation Wind Pressure Humidity
00:00 +35°C° 0 mm 4 mps 735 mmHg 63%
01:00 +35°C° 0 mm 4 mps 735 mmHg 64%
02:00 +35°C° 0 mm 4 mps 735 mmHg 64%
03:00 +34°C° 0 mm 4 mps 735 mmHg 65%
04:00 +34°C° 0 mm 4 mps 735 mmHg 66%
05:00 +34°C° 0 mm 4 mps 736 mmHg 67%
06:00 +35°C° 0.2 mm 4 mps 736 mmHg 64%
07:00 +36°C° 0.2 mm 5 mps 736 mmHg 61%
08:00 +37°C° 0.2 mm 5 mps 737 mmHg 58%
09:00 +39°C° 0.6 mm 5 mps 737 mmHg 54%
10:00 +40°C° 0.6 mm 4 mps 737 mmHg 49%
11:00 +42°C° 0.6 mm 4 mps 737 mmHg 44%
12:00 +42°C° 0 mm 4 mps 736 mmHg 44%
13:00 +42°C° 0 mm 4 mps 736 mmHg 43%
14:00 +42°C° 0 mm 4 mps 735 mmHg 43%
15:00 +40°C° 0 mm 3 mps 735 mmHg 44%
16:00 +40°C° 0 mm 3 mps 734 mmHg 44%
17:00 +40°C° 0 mm 3 mps 734 mmHg 45%
18:00 +39°C° 0 mm 3 mps 734 mmHg 48%
19:00 +38°C° 0 mm 4 mps 734 mmHg 51%
20:00 +37°C° 0 mm 4 mps 735 mmHg 53%
21:00 +37°C° 0 mm 4 mps 735 mmHg 57%
22:00 +36°C° 0 mm 5 mps 735 mmHg 61%
23:00 +35°C° 0 mm 5 mps 736 mmHg 65%

18 July, Saturday

Time Temperature Precipitation Wind Pressure Humidity
00:00 +35°C° 0.1 mm 5 mps 736 mmHg 66%
01:00 +34°C° 0.1 mm 4 mps 735 mmHg 68%
02:00 +34°C° 0.1 mm 4 mps 735 mmHg 70%
03:00 +34°C° 0.1 mm 4 mps 735 mmHg 70%
04:00 +34°C° 0.1 mm 4 mps 736 mmHg 70%
05:00 +34°C° 0.1 mm 4 mps 736 mmHg 70%
06:00 +34°C° 0.1 mm 4 mps 736 mmHg 67%
07:00 +35°C° 0.1 mm 5 mps 737 mmHg 65%
08:00 +36°C° 0.1 mm 5 mps 737 mmHg 63%
09:00 +37°C° 0.8 mm 5 mps 737 mmHg 60%
10:00 +37°C° 0.8 mm 5 mps 737 mmHg 58%
11:00 +39°C° 0.8 mm 5 mps 737 mmHg 55%
12:00 +37°C° 1.1 mm 5 mps 737 mmHg 57%
13:00 +37°C° 1.1 mm 5 mps 737 mmHg 60%
14:00 +36°C° 1.1 mm 6 mps 736 mmHg 62%
15:00 +36°C° 0.5 mm 6 mps 736 mmHg 64%
16:00 +35°C° 0.5 mm 6 mps 736 mmHg 66%
17:00 +34°C° 0.5 mm 6 mps 735 mmHg 68%
18:00 +34°C° 0.1 mm 5 mps 736 mmHg 70%
19:00 +33°C° 0.1 mm 5 mps 736 mmHg 71%
20:00 +33°C° 0.1 mm 4 mps 736 mmHg 73%
21:00 +32°C° 0 mm 4 mps 736 mmHg 74%
22:00 +32°C° 0 mm 4 mps 736 mmHg 76%
23:00 +32°C° 0 mm 4 mps 737 mmHg 77%

19 July, Sunday

Time Temperature Precipitation Wind Pressure Humidity
00:00 +30°C° 0.6 mm 4 mps 736 mmHg 78%
01:00 +30°C° 0.6 mm 4 mps 736 mmHg 80%
02:00 +30°C° 0.6 mm 4 mps 736 mmHg 82%
03:00 +29°C° 2.5 mm 4 mps 736 mmHg 84%
04:00 +29°C° 2.5 mm 3 mps 736 mmHg 86%
05:00 +29°C° 2.5 mm 3 mps 736 mmHg 89%
06:00 +29°C° 0.6 mm 3 mps 736 mmHg 88%
07:00 +29°C° 0.6 mm 3 mps 736 mmHg 87%
08:00 +29°C° 0.6 mm 3 mps 737 mmHg 87%
09:00 +30°C° 1 mm 3 mps 737 mmHg 85%
10:00 +30°C° 1 mm 3 mps 737 mmHg 84%
11:00 +30°C° 1 mm 4 mps 737 mmHg 83%
12:00 +32°C° 2.7 mm 4 mps 736 mmHg 81%
13:00 +31°C° 2.7 mm 3 mps 736 mmHg 80%
14:00 +31°C° 2.7 mm 3 mps 735 mmHg 79%
15:00 +31°C° 5.4 mm 3 mps 735 mmHg 82%
16:00 +30°C° 5.4 mm 2 mps 735 mmHg 85%
17:00 +29°C° 5.4 mm 2 mps 734 mmHg 88%
18:00 +29°C° 2 mm 2 mps 735 mmHg 89%
19:00 +29°C° 2 mm 1 mps 735 mmHg 90%
20:00 +29°C° 2 mm 1 mps 735 mmHg 91%
21:00 +29°C° 0.2 mm 1 mps 735 mmHg 91%
22:00 +29°C° 0.2 mm 1 mps 735 mmHg 90%
23:00 +29°C° 0.2 mm 1 mps 735 mmHg 90%
Show more